Terminal Aerodrome Forecast
Issued by NWS Green Bay, WI

Home | Current Version | Previous Version | Text Only | Print | Product List | Glossary Off
Versions: 1 2 3 4 5 6 7 8 9 10 11 12 13 14 15 16 17 18 19 20 21 22 23 24 25 26 27 28 29 30 31 32 33 34 35 36 37 38 39 40 41 42 43 44 45 46 47 48 49 50

000
FTUS43 KGRB 241100
TAFGRB
TAF
KGRB 241132Z 2412/2512 36004KT 1/4SM -DZ FG VV002
      TEMPO 2412/2414 1SM BR OVC003
     FM241400 01007KT 5SM BR OVC005
     FM241800 01010G15KT 6SM BR OVC012
     FM242200 36013G22KT 6SM -SN SCT012 OVC020
     FM250100 34011G20KT P6SM -SN SCT015 BKN024
     FM250600 27010G18KT P6SM OVC025=

USA.gov is the U.S. government's official web portal to all federal, state and local government web resources and services.